Regional Weather Roundup
Issued by NWS

Home | Current Version | Previous Version | Text Only | Print | Product List | Glossary Off
Versions: 1 2 3 4 5 6 7 8 9 10 11 12 13 14 15 16 17 18 19 20 21 22 23 24 25 26 27 28 29 30 31 32 33 34 35 36 37 38 39 40 41 42 43 44 45 46 47 48 49 50

000
ASUS43 KMPX 301701
RWRMN
WEATHER ROUNDUP FOR MINNESOTA
NATIONAL WEATHER SERVICE TWIN CITIES/CHANHASSEN MN
1200 PM CDT SAT APR 30 2016


NOTE: "FAIR" INDICATES FEW OR NO CLOUDS BELOW 12,000 FEET WITH NO
SIGNIFICANT WEATHER AND/OR OBSTRUCTIONS TO VISIBILITY. N/A MEANS
CURRENT SKY AND/OR WEATHER CONDITIONS ARE NOT AVAILABLE.

MNZ060>063-068>070-301800-
   Twin Cities Metro

CITY           SKY/WX    TMP DP  RH WIND       PRES   REMARKS
TWIN CITIES    CLOUDY    53  32  44 E21G29    30.07S
ST PAUL        CLOUDY    53  32  44 E18G25    30.09S
CRYSTAL        MOSUNNY   57  33  40 NE10G26   30.07S
EDEN PRAIRIE   CLOUDY    54  32  43 E18G25    30.06R
SOUTH ST PAUL  CLOUDY    53  32  44 NE10G24   30.07F
LAKE ELMO      FAIR      54  34  47 NE17G23   30.09S
$$
MNZ001>005-007-008-013>017-022>024-027-028-301800-
   Northwest Minnesota

CITY           SKY/WX    TMP DP  RH WIND       PRES   REMARKS
BEMIDJI        SUNNY     53  26  35 E20       30.21F
HALLOCK        SUNNY     57  25  28 E17G23    30.30F
ROSEAU         SUNNY     54  34  47 E20G25    30.31F
WARROAD        SUNNY     48  34  57 NE12      30.33F
THIEF RVR FALL SUNNY     54  27  35 NE22G29   30.27S
CROOKSTON      SUNNY     55  28  35 E16G25    30.25F
FOSSTON        SUNNY     54  28  37 NE16G24   30.23S
DETROIT LAKES  SUNNY     54  30  40 NE18G26   30.17F
MOORHEAD       SUNNY     57  30  35 NE20G28   30.18F
PARK RAPIDS    SUNNY     54  28  36 E16G26    30.17F
MAHNOMEN       FAIR      53  29  39 NE24      30.19F
$$
MNZ006-009>011-018-025>026-301800-
   North Central Minnesota

CITY           SKY/WX    TMP DP  RH WIND       PRES   REMARKS
BAUDETTE       SUNNY     54  24  31 NE18G25   30.30F
FLAG ISLAND    SUNNY     48  25  40 NE17G23   30.33F
INTL FALLS     SUNNY     51  27  39 NE13G18   30.30S
WASKISH        SUNNY     55  28  35 NE14G25   30.26F
BIG FORK       SUNNY     54  27  35 N10G21    30.24F
LONGVILLE      SUNNY     54  27  35 NE13G21   30.19F
GRAND RAPIDS   MOSUNNY   52  28  40 NE10G22   30.22F
CRANE LAKE     MOSUNNY   50  27  40 NE6       30.30F
ORR            SUNNY     54  21  28 E7        30.24F
COOK           PTSUNNY   52  30  43 NE6       30.25F
WALKER         FAIR      52  31  44 NE13G20   30.21F
$$
MNZ012-019>021-037-301800-
   Northeast Minnesota

CITY           SKY/WX    TMP DP  RH WIND       PRES   REMARKS
DULUTH         MOSUNNY   47  30  51 E25G35    30.23F
ELY            MOSUNNY   48  25  40 NE8       30.26F
HIBBING        PTSUNNY   51  28  41 E13G20    30.22F
EVELETH        MOSUNNY   52  28  40 NE16      30.24F
DULUTH HARBOR  SUNNY     41  36  81 NE29      30.25F
TWO HARBORS    SUNNY     50  37  62 E20G25    30.25S
SILVER BAY     MOSUNNY   46  34  61 NE14G23   30.26F
GRAND MARAIS     N/A     41  33  73 NE8       30.30S
G MARAIS ARPRT PTSUNNY   48  23  37 NE16      30.27F
$$
MNZ029>031-032-039>041-046>048-054>057-064-301800-
   West Central Minnesota

CITY           SKY/WX    TMP DP  RH WIND       PRES   REMARKS
FERGUS FALLS   CLOUDY    54  32  43 E16G29    30.12F
WHEATON        CLOUDY    55  36  47 NE17G30   30.13S
MORRIS         CLOUDY    52  37  58 NE22      30.10R
ALEXANDRIA     PTSUNNY   52  32  46 E21G29    30.12S
ELBOW LAKE     FAIR      51  33  50 NE13G24   30.12F
WADENA         CLOUDY    54  30  40 E17G26    30.13F
GLENWOOD       PTSUNNY   52  36  54 NE23      30.11R
APPLETON       CLOUDY    52  36  54 NE17      30.09R
BENSON         CLOUDY    52  34  50 E14G25    30.10R
ORTONVILLE     CLOUDY    48  37  66 NE15G28   30.09R
MADISON        CLOUDY    50  37  62 E21       30.08R
WILLMAR        FAIR      52  37  58 E18G25    30.09R
$$
MNZ033>034-036-042>043-049>051-058-059-301800-
   Central Minnesota

CITY           SKY/WX    TMP DP  RH WIND       PRES   REMARKS
ST CLOUD       PTSUNNY   52  31  44 NE16G26   30.11S
SAUK CENTRE    FAIR      51  35  54 NE18G24   30.11S
PAYNESVILLE    CLOUDY    50  32  50 E15G23    30.10S
AITKIN         SUNNY     57  27  30 NE18G25   30.15F
PINE RIVER     SUNNY     55  34  44 E15G22    30.19F
BRAINERD       CLOUDY    54  32  43 NE18G33   30.15F
STAPLES        CLOUDY    54  28  37 NE14G23   30.13F
LONG PRAIRIE   FAIR      48  34  57 NE15G23   30.13S
LITTLE FALLS   PTSUNNY   52  32  46 NE12G21   30.14S
LITCHFIELD     PTSUNNY   54  36  50 NE17G23   30.08R
BUFFALO        CLOUDY    54  32  43 NE16G22   30.09S
MAPLE LAKE     CLOUDY    53  36  52 NE18      30.09F
HUTCHINSON     SUNNY     52  39  61 NE18      30.07R
$$
MNZ037-044-045-052-053-301800-
   East Central Minnesota

CITY           SKY/WX    TMP DP  RH WIND       PRES   REMARKS
PRINCETON        N/A     55  34  44 N17G23    30.11F
MORA           PTSUNNY   54  32  43 E13G22    30.15F
CAMBRIDGE      CLOUDY    57  37  47 NE12G20   30.10S
RUSH CITY      MOSUNNY   56  35  44 NE14G22   30.13F
MOOSE LAKE     CLOUDY    50  32  50 NE14G29   30.17F
HINCKLEY       FAIR      54  34  47 NE12G22   30.14F
CLOQUET        MOSUNNY   48  28  46 NE24G32   30.21F
MCGREGOR       SUNNY     54  34  47 NE12G22   30.18F
$$
MNZ071>073-080-081-089-090-097-098-301800-
   Southwest Minnesota

CITY           SKY/WX    TMP DP  RH WIND       PRES   REMARKS
MONTEVIDEO     CLOUDY    50  37  62 E17G26    30.09R
GRANITE FALLS  CLOUDY    51  39  65 NE16G24   30.08R
CANBY          CLOUDY    51  40  68 NE16G22   30.07R
MARSHALL       CLOUDY    47  37  68 E17       30.04R
REDWOOD FALLS  CLOUDY    50  36  58 E13G22    30.05R
OLIVIA         PTSUNNY   50  36  57 E15G23    30.05R
WINDOM         RAIN      45  41  87 NE21G26   29.98S
WORTHINGTON    RAIN      42  41  96 NE25      29.93F FOG
JACKSON        LGT SNOW  43  41  93 E23       29.95F
TRACY          CLOUDY    46  40  79 NE15G22   30.02R
SLAYTON        DRIZZLE   42  40  91 NE15G21   29.99R
$$
MNZ065>067-074>077-082>085-091>093-301800-
   South Central Minnesota

CITY           SKY/WX    TMP DP  RH WIND       PRES   REMARKS
MANKATO        CLOUDY    52  36  54 E22G29    30.02R
NEW ULM        CLOUDY    50  36  57 E18G28    30.02R
ST JAMES       LGT RAIN  43  37  81 E18G26    30.01R
FAIRMONT       CLOUDY    45  36  70 NE20      29.96F
GLENCOE        CLOUDY    54  39  56 E17G23    30.05R
FARIBAULT      CLOUDY    52  36  54 NE14G23   30.04S
OWATONNA       CLOUDY    48  34  57 NE24G30   30.01S
WASECA         CLOUDY    46  34  61 E16G28    30.02R
ALBERT LEA     CLOUDY    43  43 100 E23       29.97S
$$
MNZ078>079-086>088-094>096-301800-
   Southeast Minnesota

CITY           SKY/WX    TMP DP  RH WIND       PRES   REMARKS
ROCHESTER      CLOUDY    46  36  68 E18       30.01F
RED WING       CLOUDY    54  34  47 E16G24    30.05F
STANTON        CLOUDY    53  36  52 NE17G25   30.04S
DODGE CENTER   PTSUNNY   48  36  61 E23       30.00F
WINONA         CLOUDY    52  34  50 E12G20    30.05S
AUSTIN         RAIN      43  37  81 NE16G22   29.98S
PRESTON        LGT RAIN  42  35  75 NE10G18   30.01S
$$
ABBREVIATIONS USED IN REMARKS
   TC - TEMPERATURES IN CELSIUS
  WCI - WIND CHILL INDEX
   HX - HEAT INDEX
  VSB - VISIBILITY
$$




USA.gov is the U.S. government's official web portal to all federal, state and local government web resources and services.